Date,TemperatureHighF,TemperatureAvgF,TemperatureLowF,DewpointHighF,DewpointAvgF,DewpointLowF,HumidityHigh,HumidityAvg,HumidityLow,PressureMaxIn,PressureMinIn,WindSpeedMaxMPH,WindSpeedAvgMPH,GustSpeedMaxMPH,PrecipitationSumIn
2013-1-1,33.3,25.3,16.3,31.1,15.7,5.5,92,67,52,29.63,29.48,12,5,12,0.00
2013-1-2,34.7,21.3,12.6,14.0,7.5,2.3,68,55,40,29.69,29.60,6,2,6,0.00
2013-1-3,40.5,28.3,18.9,21.9,15.3,6.6,69,58,45,29.78,29.60,13,4,13,0.00
2013-1-4,41.4,29.5,23.2,20.8,17.6,15.3,77,62,41,29.81,29.69,15,3,17,0.00
2013-1-5,44.2,33.4,22.6,28.2,22.0,16.0,77,64,44,29.72,29.48,13,3,13,0.00
2013-1-6,37.9,32.5,21.7,28.6,20.6,14.4,73,62,45,29.75,29.45,22,6,22,0.00
2013-1-7,45.0,29.8,18.7,22.8,17.7,11.8,78,62,38,29.81,29.57,11,2,11,0.00
2013-1-8,51.4,37.2,24.4,29.7,23.0,17.4,77,58,36,29.66,29.54,11,2,11,0.00
2013-1-9,59.4,46.6,39.2,44.6,34.0,26.1,91,64,36,29.87,29.57,10,0,10,0.16
2013-1-10,58.1,46.3,40.6,57.6,39.6,25.3,98,79,48,29.87,29.25,13,5,13,0.12
2013-1-11,63.0,56.3,51.8,58.1,48.7,43.2,98,77,51,29.34,29.22,21,6,22,0.20
2013-1-12,65.5,52.2,34.9,54.3,47.1,32.7,98,84,59,29.39,29.19,23,6,23,1.78
2013-1-13,34.7,28.5,20.8,33.6,22.9,8.8,96,80,59,29.72,29.28,18,4,18,1.90
2013-1-14,28.6,22.6,18.5,14.2,10.3,6.1,73,59,47,29.87,29.72,11,4,13,0.00
2013-1-15,30.0,25.7,19.9,19.0,14.7,12.0,75,63,51,29.78,29.48,13,5,14,0.00
2013-1-16,42.1,32.1,23.7,21.6,18.5,15.3,81,58,37,29.54,29.42,11,4,11,0.00
2013-1-17,42.1,34.6,25.3,27.5,20.6,14.9,66,56,44,29.87,29.51,18,5,19,0.00
2013-1-18,47.7,34.5,21.9,24.3,19.9,14.9,78,57,37,29.90,29.54,23,5,23,0.00
2013-1-19,57.9,46.3,37.9,32.0,27.6,23.2,59,48,35,29.60,29.34,23,8,23,0.00
2013-1-20,44.2,32.6,25.9,27.7,11.7,5.7,57,42,31,29.72,29.48,18,6,18,0.00
2013-1-21,27.1,21.3,14.5,9.0,0.7,-7.6,58,41,32,29.75,29.63,23,8,24,0.00
2013-1-22,23.5,17.6,11.1,4.6,-3.0,-10.7,50,40,35,29.84,29.72,14,4,14,0.00
2013-1-23,43.5,27.4,14.2,17.8,10.5,3.0,63,49,34,29.75,29.51,18,4,20,0.00
2013-1-24,28.2,23.0,15.1,9.5,2.4,-4.4,48,40,35,29.96,29.66,20,6,20,0.00
2013-1-25,42.8,31.7,26.2,18.0,9.9,1.6,53,40,33,29.66,29.48,15,4,15,0.00
2013-1-26,40.1,29.9,22.5,16.2,10.5,5.0,57,44,33,29.75,29.60,12,4,13,0.00
2013-1-27,47.1,34.6,25.7,44.2,27.6,10.8,98,77,51,29.72,29.42,17,4,19,0.13
2013-1-28,59.7,55.5,47.1,58.3,53.4,44.4,97,92,86,29.45,29.36,19,6,19,0.25
2013-1-29,66.0,61.5,53.1,59.2,55.2,50.0,98,80,62,29.36,28.86,35,9,35,1.16
2013-1-30,54.7,42.3,28.6,53.1,36.1,12.2,98,80,48,29.31,28.86,33,10,33,1.53
2013-1-31,34.9,26.2,11.8,26.1,12.4,-4.0,93,56,44,29.72,29.31,28,11,28,0.00